Time,TemperatureF,DewpointF,PressureIn,WindDirection,WindDirectionDegrees,WindSpeedMPH,WindSpeedGustMPH,Humidity,HourlyPrecipIn,Conditions,Clouds,dailyrainin,SoftwareType,DateUTC
2013-04-21 00:01:00,41.9,20.4,30.16,West,270,7.6,7.6,42,0.00,,,0.00,WUHU216HW,2013-04-21 04:01:00,
2013-04-21 00:06:00,41.6,20.6,30.17,West,270,11.0,11.0,43,0.00,,,0.00,WUHU216HW,2013-04-21 04:06:00,
2013-04-21 00:11:00,41.4,20.4,30.18,NNW,338,8.5,11.0,43,0.00,,,0.00,WUHU216HW,2013-04-21 04:11:00,
2013-04-21 00:16:00,41.4,20.4,30.18,NNW,338,8.5,11.0,43,0.00,,,0.00,WUHU216HW,2013-04-21 04:16:00,
2013-04-21 00:21:00,41.0,20.6,30.18,North,0,0.0,8.5,44,0.00,,,0.00,WUHU216HW,2013-04-21 04:21:00,
2013-04-21 00:26:00,40.9,20.4,30.18,North,0,0.0,8.5,44,0.00,,,0.00,WUHU216HW,2013-04-21 04:26:00,
2013-04-21 00:31:00,40.7,20.4,30.19,North,0,0.0,0.0,44,0.00,,,0.00,WUHU216HW,2013-04-21 04:31:00,
2013-04-21 00:36:00,40.7,20.4,30.20,North,0,0.0,0.0,44,0.00,,,0.00,WUHU216HW,2013-04-21 04:36:00,
2013-04-21 00:41:00,40.3,20.0,30.20,North,0,0.0,0.0,44,0.00,,,0.00,WUHU216HW,2013-04-21 04:41:00,
2013-04-21 00:46:00,40.1,19.8,30.20,North,0,0.0,0.0,44,0.00,,,0.00,WUHU216HW,2013-04-21 04:46:00,
2013-04-21 00:51:00,40.0,20.2,30.20,North,0,0.0,0.0,45,0.00,,,0.00,WUHU216HW,2013-04-21 04:51:00,
2013-04-21 00:56:00,39.8,20.0,30.20,North,0,0.0,0.0,45,0.00,,,0.00,WUHU216HW,2013-04-21 04:56:00,
2013-04-21 01:01:00,39.6,19.9,30.20,North,0,0.0,0.0,45,0.00,,,0.00,WUHU216HW,2013-04-21 05:01:00,
2013-04-21 01:06:00,39.2,19.5,30.21,North,0,0.0,0.0,45,0.00,,,0.00,WUHU216HW,2013-04-21 05:06:00,
2013-04-21 01:11:00,39.1,19.4,30.21,North,0,0.0,0.0,45,0.00,,,0.00,WUHU216HW,2013-04-21 05:11:00,
2013-04-21 01:16:00,38.7,19.1,30.21,North,0,0.0,0.0,45,0.00,,,0.00,WUHU216HW,2013-04-21 05:16:00,
2013-04-21 01:21:00,38.5,18.9,30.21,North,0,0.0,0.0,45,0.00,,,0.00,WUHU216HW,2013-04-21 05:21:00,
2013-04-21 01:26:00,38.3,18.7,30.22,North,0,0.0,0.0,45,0.00,,,0.00,WUHU216HW,2013-04-21 05:26:00,
2013-04-21 01:31:00,38.3,18.7,30.22,North,0,0.0,0.0,45,0.00,,,0.00,WUHU216HW,2013-04-21 05:31:00,
2013-04-21 01:36:00,38.2,18.5,30.22,North,0,0.0,0.0,45,0.00,,,0.00,WUHU216HW,2013-04-21 05:36:00,
2013-04-21 01:41:00,38.0,18.4,30.23,NW,315,5.6,5.6,45,0.00,,,0.00,WUHU216HW,2013-04-21 05:41:00,
2013-04-21 01:46:00,37.8,18.3,30.23,WSW,248,5.4,5.6,45,0.00,,,0.00,WUHU216HW,2013-04-21 05:46:00,
2013-04-21 01:51:00,37.8,18.3,30.23,NNW,338,5.4,5.6,45,0.00,,,0.00,WUHU216HW,2013-04-21 05:51:00,
2013-04-21 01:56:00,37.4,17.9,30.23,North,0,0.0,5.4,45,0.00,,,0.00,WUHU216HW,2013-04-21 05:56:00,
2013-04-21 02:01:00,37.4,18.5,30.23,WNW,293,5.4,5.4,46,0.00,,,0.00,WUHU216HW,2013-04-21 06:01:00,
2013-04-21 02:06:00,37.1,17.6,30.23,North,0,0.0,5.4,45,0.00,,,0.00,WUHU216HW,2013-04-21 06:06:00,
2013-04-21 02:11:00,37.1,18.1,30.23,North,0,0.0,5.4,46,0.00,,,0.00,WUHU216HW,2013-04-21 06:11:00,
2013-04-21 02:16:00,37.1,18.1,30.23,North,0,0.0,0.0,46,0.00,,,0.00,WUHU216HW,2013-04-21 06:16:00,
2013-04-21 02:21:00,36.9,17.9,30.24,North,0,0.0,0.0,46,0.00,,,0.00,WUHU216HW,2013-04-21 06:21:00,
2013-04-21 02:25:00,36.5,17.7,30.24,North,0,0.0,0.0,46,0.00,,,0.00,WUHU216HW,2013-04-21 06:25:00,
2013-04-21 02:31:00,36.4,17.5,30.25,North,0,0.0,0.0,46,0.00,,,0.00,WUHU216HW,2013-04-21 06:31:00,
2013-04-21 02:35:00,36.0,17.1,30.25,North,0,0.0,0.0,46,0.00,,,0.00,WUHU216HW,2013-04-21 06:35:00,
2013-04-21 02:40:00,35.8,17.0,30.25,North,0,0.0,0.0,46,0.00,,,0.00,WUHU216HW,2013-04-21 06:40:00,
2013-04-21 02:45:00,35.6,16.8,30.26,North,0,0.0,0.0,46,0.00,,,0.00,WUHU216HW,2013-04-21 06:45:00,
2013-04-21 02:50:00,35.5,16.7,30.26,North,0,0.0,0.0,46,0.00,,,0.00,WUHU216HW,2013-04-21 06:50:00,
2013-04-21 02:55:00,34.9,16.1,30.26,North,0,0.0,0.0,46,0.00,,,0.00,WUHU216HW,2013-04-21 06:55:00,
2013-04-21 03:00:00,34.6,16.3,30.26,North,0,0.0,0.0,47,0.00,,,0.00,WUHU216HW,2013-04-21 07:00:00,
2013-04-21 03:05:00,33.8,15.6,30.27,North,0,0.0,0.0,47,0.00,,,0.00,WUHU216HW,2013-04-21 07:05:00,
2013-04-21 03:10:00,33.3,15.1,30.26,North,0,0.0,0.0,47,0.00,,,0.00,WUHU216HW,2013-04-21 07:10:00,
2013-04-21 03:15:00,32.6,14.0,30.27,North,0,0.0,0.0,46,0.00,,,0.00,WUHU216HW,2013-04-21 07:15:00,
2013-04-21 03:20:00,32.2,13.6,30.28,WSW,248,2.0,2.5,46,0.00,,,0.00,WUHU216HW,2013-04-21 07:20:00,
2013-04-21 03:25:00,32.0,13.5,30.28,WSW,248,0.4,2.5,46,0.00,,,0.00,WUHU216HW,2013-04-21 07:25:00,
2013-04-21 03:30:00,31.9,12.8,30.28,North,0,0.0,2.0,45,0.00,,,0.00,WUHU216HW,2013-04-21 07:30:00,
2013-04-21 03:35:00,31.7,12.2,30.28,North,0,0.0,0.4,44,0.00,,,0.00,WUHU216HW,2013-04-21 07:35:00,
2013-04-21 03:40:00,31.5,12.0,30.28,North,0,0.0,0.0,44,0.00,,,0.00,WUHU216HW,2013-04-21 07:40:00,
2013-04-21 03:45:00,31.1,10.6,30.29,North,0,0.0,0.0,42,0.00,,,0.00,WUHU216HW,2013-04-21 07:45:00,
2013-04-21 03:50:00,31.1,10.2,30.28,North,0,0.0,0.0,41,0.00,,,0.00,WUHU216HW,2013-04-21 07:50:00,
2013-04-21 03:55:00,31.0,10.0,30.29,North,0,0.0,0.0,41,0.00,,,0.00,WUHU216HW,2013-04-21 07:55:00,
2013-04-21 04:00:00,31.0,10.0,30.29,North,0,0.0,0.0,41,0.00,,,0.00,WUHU216HW,2013-04-21 08:00:00,
2013-04-21 04:05:00,30.6,9.6,30.29,North,0,0.0,0.0,41,0.00,,,0.00,WUHU216HW,2013-04-21 08:05:00,
2013-04-21 04:10:00,30.6,9.6,30.29,North,0,0.0,0.0,41,0.00,,,0.00,WUHU216HW,2013-04-21 08:10:00,
2013-04-21 04:15:00,30.2,8.8,30.29,North,0,0.0,0.0,40,0.00,,,0.00,WUHU216HW,2013-04-21 08:15:00,
2013-04-21 04:20:00,29.9,8.5,30.30,North,0,0.0,0.0,40,0.00,,,0.00,WUHU216HW,2013-04-21 08:20:00,
2013-04-21 04:25:00,29.3,8.6,30.30,North,0,0.0,0.0,41,0.00,,,0.00,WUHU216HW,2013-04-21 08:25:00,
2013-04-21 04:30:00,29.0,7.7,30.30,North,0,0.0,0.0,40,0.00,,,0.00,WUHU216HW,2013-04-21 08:30:00,
2013-04-21 04:35:00,29.2,7.2,30.30,North,0,0.0,0.0,39,0.00,,,0.00,WUHU216HW,2013-04-21 08:35:00,
2013-04-21 04:40:00,29.5,6.9,30.30,North,0,0.0,0.0,38,0.00,,,0.00,WUHU216HW,2013-04-21 08:40:00,
2013-04-21 04:45:00,30.1,4.2,30.31,North,0,0.0,0.0,33,0.00,,,0.00,WUHU216HW,2013-04-21 08:45:00,
2013-04-21 04:50:00,30.6,4.2,30.31,North,0,0.0,0.0,32,0.00,,,0.00,WUHU216HW,2013-04-21 08:50:00,
2013-04-21 04:55:00,30.8,4.2,30.31,North,0,0.0,0.0,32,0.00,,,0.00,WUHU216HW,2013-04-21 08:55:00,
2013-04-21 05:00:00,30.8,4.2,30.31,North,0,0.0,0.0,32,0.00,,,0.00,WUHU216HW,2013-04-21 09:00:00,
2013-04-21 05:05:00,30.8,4.9,30.31,North,0,0.0,0.0,33,0.00,,,0.00,WUHU216HW,2013-04-21 09:05:00,
2013-04-21 05:10:00,30.6,5.4,30.31,North,0,0.0,0.0,34,0.00,,,0.00,WUHU216HW,2013-04-21 09:10:00,
2013-04-21 05:15:00,30.8,4.9,30.32,North,0,0.0,0.0,33,0.00,,,0.00,WUHU216HW,2013-04-21 09:15:00,
2013-04-21 05:20:00,30.6,6.0,30.32,North,0,0.0,0.0,35,0.00,,,0.00,WUHU216HW,2013-04-21 09:20:00,
2013-04-21 05:25:00,30.4,5.9,30.32,North,0,0.0,0.0,35,0.00,,,0.00,WUHU216HW,2013-04-21 09:25:00,
2013-04-21 05:30:00,30.2,5.7,30.33,North,0,0.0,0.0,35,0.00,,,0.00,WUHU216HW,2013-04-21 09:30:00,
2013-04-21 05:35:00,30.2,5.7,30.33,North,0,0.0,0.0,35,0.00,,,0.00,WUHU216HW,2013-04-21 09:35:00,
2013-04-21 05:40:00,30.1,4.2,30.34,North,0,0.0,0.0,33,0.00,,,0.00,WUHU216HW,2013-04-21 09:40:00,
2013-04-21 05:45:00,29.9,4.1,30.34,North,0,0.0,0.0,33,0.00,,,0.00,WUHU216HW,2013-04-21 09:45:00,
2013-04-21 05:50:00,29.7,4.0,30.35,North,0,0.0,0.0,33,0.00,,,0.00,WUHU216HW,2013-04-21 09:50:00,
2013-04-21 05:55:00,29.7,3.3,30.35,North,0,0.0,0.0,32,0.00,,,0.00,WUHU216HW,2013-04-21 09:55:00,
2013-04-21 06:00:00,29.7,2.7,30.35,North,0,0.0,0.0,31,0.00,,,0.00,WUHU216HW,2013-04-21 10:00:00,
2013-04-21 06:05:00,29.9,2.2,30.36,North,0,0.0,0.0,30,0.00,,,0.00,WUHU216HW,2013-04-21 10:05:00,
2013-04-21 06:10:00,29.9,1.4,30.36,North,0,0.0,0.0,29,0.00,,,0.00,WUHU216HW,2013-04-21 10:10:00,
2013-04-21 06:15:00,29.9,1.4,30.36,North,0,0.0,0.0,29,0.00,,,0.00,WUHU216HW,2013-04-21 10:15:00,
2013-04-21 06:20:00,29.9,2.2,30.37,North,0,0.0,0.0,30,0.00,,,0.00,WUHU216HW,2013-04-21 10:20:00,
2013-04-21 06:25:00,30.1,2.3,30.37,North,0,0.0,0.0,30,0.00,,,0.00,WUHU216HW,2013-04-21 10:25:00,
2013-04-21 06:30:00,30.8,0.5,30.38,North,0,0.0,0.0,27,0.00,,,0.00,WUHU216HW,2013-04-21 10:30:00,
2013-04-21 06:35:00,32.0,-4.5,30.38,North,0,0.0,0.0,20,0.00,,,0.00,WUHU216HW,2013-04-21 10:35:00,
2013-04-21 06:40:00,33.3,-9.1,30.39,North,0,0.0,0.0,16,0.00,,,0.00,WUHU216HW,2013-04-21 10:40:00,
2013-04-21 06:45:00,34.4,-9.6,30.39,North,0,0.0,0.0,15,0.00,,,0.00,WUHU216HW,2013-04-21 10:45:00,
2013-04-21 06:50:00,34.7,-6.5,30.40,North,0,0.0,0.0,17,0.00,,,0.00,WUHU216HW,2013-04-21 10:50:00,
2013-04-21 06:55:00,35.5,1.0,30.40,North,0,0.0,0.0,23,0.00,,,0.00,WUHU216HW,2013-04-21 10:55:00,
2013-04-21 07:00:00,35.8,3.9,30.41,North,0,0.0,0.0,26,0.00,,,0.00,WUHU216HW,2013-04-21 11:00:00,
2013-04-21 07:05:00,36.7,10.1,30.41,North,0,0.0,0.0,33,0.00,,,0.00,WUHU216HW,2013-04-21 11:05:00,
2013-04-21 07:10:00,36.9,12.3,30.41,North,0,0.0,0.0,36,0.00,,,0.00,WUHU216HW,2013-04-21 11:10:00,
2013-04-21 07:15:00,36.7,14.7,30.42,North,0,0.0,0.0,40,0.00,,,0.00,WUHU216HW,2013-04-21 11:15:00,
2013-04-21 07:20:00,37.3,16.2,30.42,NW,315,2.5,2.5,42,0.00,,,0.00,WUHU216HW,2013-04-21 11:20:00,
2013-04-21 07:25:00,38.2,17.6,30.42,NW,315,6.9,8.3,43,0.00,,,0.00,WUHU216HW,2013-04-21 11:25:00,
2013-04-21 07:30:00,38.5,18.4,30.42,WSW,248,1.3,8.3,44,0.00,,,0.00,WUHU216HW,2013-04-21 11:30:00,
2013-04-21 07:35:00,39.4,19.7,30.43,NNW,338,12.8,12.8,45,0.00,,,0.00,WUHU216HW,2013-04-21 11:35:00,
2013-04-21 07:40:00,39.6,19.9,30.43,WSW,248,5.1,12.8,45,0.00,,,0.00,WUHU216HW,2013-04-21 11:40:00,
2013-04-21 07:45:00,39.4,19.7,30.43,North,0,3.4,9.8,45,0.00,,,0.00,WUHU216HW,2013-04-21 11:45:00,
2013-04-21 07:50:00,40.0,20.2,30.43,North,0,4.9,9.2,45,0.00,,,0.00,WUHU216HW,2013-04-21 11:50:00,
2013-04-21 07:55:00,40.3,20.0,30.43,WNW,293,5.4,11.0,44,0.00,,,0.00,WUHU216HW,2013-04-21 11:55:00,
2013-04-21 08:00:00,40.5,20.2,30.44,NW,315,7.8,11.0,44,0.00,,,0.00,WUHU216HW,2013-04-21 12:00:00,
2013-04-21 08:05:00,40.7,20.4,30.44,West,270,7.6,10.3,44,0.00,,,0.00,WUHU216HW,2013-04-21 12:05:00,
2013-04-21 08:10:00,40.3,20.0,30.44,WNW,293,15.0,15.0,44,0.00,,,0.00,WUHU216HW,2013-04-21 12:10:00,
2013-04-21 08:15:00,40.0,20.2,30.44,WNW,293,4.7,15.0,45,0.00,,,0.00,WUHU216HW,2013-04-21 12:15:00,
2013-04-21 08:20:00,40.0,20.2,30.44,WNW,293,8.3,8.3,45,0.00,,,0.00,WUHU216HW,2013-04-21 12:20:00,
2013-04-21 08:25:00,40.3,20.0,30.44,NNW,338,3.4,12.8,44,0.00,,,0.00,WUHU216HW,2013-04-21 12:25:00,
2013-04-21 08:30:00,40.7,20.4,30.45,NW,315,8.3,12.8,44,0.00,,,0.00,WUHU216HW,2013-04-21 12:30:00,
2013-04-21 08:35:00,40.9,20.4,30.45,WNW,293,4.7,11.2,44,0.00,,,0.00,WUHU216HW,2013-04-21 12:35:00,
2013-04-21 08:40:00,41.4,21.0,30.45,WNW,293,4.9,12.8,44,0.00,,,0.00,WUHU216HW,2013-04-21 12:40:00,
2013-04-21 08:45:00,41.9,21.5,30.45,NNW,338,6.3,14.3,44,0.00,,,0.00,WUHU216HW,2013-04-21 12:45:00,
2013-04-21 08:50:00,41.8,20.8,30.45,NW,315,2.5,14.3,43,0.00,,,0.00,WUHU216HW,2013-04-21 12:50:00,
2013-04-21 08:55:00,41.4,20.4,30.46,West,270,6.5,9.8,43,0.00,,,0.00,WUHU216HW,2013-04-21 12:55:00,
2013-04-21 09:00:00,41.4,21.0,30.46,NNW,338,8.3,11.4,44,0.00,,,0.00,WUHU216HW,2013-04-21 13:00:00,
2013-04-21 09:05:00,41.8,20.8,30.46,NW,315,7.6,11.4,43,0.00,,,0.00,WUHU216HW,2013-04-21 13:05:00,
2013-04-21 09:10:00,42.3,20.7,30.46,WSW,248,8.1,8.9,42,0.00,,,0.00,WUHU216HW,2013-04-21 13:10:00,
2013-04-21 09:15:00,42.1,20.6,30.47,WNW,293,9.4,10.3,42,0.00,,,0.00,WUHU216HW,2013-04-21 13:15:00,
2013-04-21 09:20:00,42.1,19.5,30.47,NW,315,7.6,10.3,40,0.00,,,0.00,WUHU216HW,2013-04-21 13:20:00,
2013-04-21 09:25:00,42.1,19.5,30.47,WNW,293,4.3,9.4,40,0.00,,,0.00,WUHU216HW,2013-04-21 13:25:00,
2013-04-21 09:30:00,42.5,20.3,30.47,NW,315,4.3,7.6,41,0.00,,,0.00,WUHU216HW,2013-04-21 13:30:00,
2013-04-21 09:35:00,42.8,20.7,30.47,WSW,248,8.5,8.5,41,0.00,,,0.00,WUHU216HW,2013-04-21 13:35:00,
2013-04-21 09:40:00,42.7,19.4,30.47,NW,315,8.1,8.5,39,0.00,,,0.00,WUHU216HW,2013-04-21 13:40:00,
2013-04-21 09:45:00,42.8,20.2,30.47,NNW,338,8.5,8.5,40,0.00,,,0.00,WUHU216HW,2013-04-21 13:45:00,
2013-04-21 09:50:00,42.8,20.2,30.47,NW,315,4.0,8.5,40,0.00,,,0.00,WUHU216HW,2013-04-21 13:50:00,
2013-04-21 09:55:00,43.4,21.2,30.48,North,0,0.0,8.5,41,0.00,,,0.00,WUHU216HW,2013-04-21 13:55:00,
2013-04-21 10:00:00,43.4,20.0,30.48,North,0,0.0,4.0,39,0.00,,,0.00,WUHU216HW,2013-04-21 14:00:00,
2013-04-21 10:05:00,43.6,20.8,30.48,North,0,0.0,0.0,40,0.00,,,0.00,WUHU216HW,2013-04-21 14:05:00,
2013-04-21 10:10:00,44.5,21.0,30.48,North,0,0.0,0.0,39,0.00,,,0.00,WUHU216HW,2013-04-21 14:10:00,
2013-04-21 10:15:00,44.6,21.2,30.48,North,0,0.0,0.0,39,0.00,,,0.00,WUHU216HW,2013-04-21 14:15:00,
2013-04-21 10:20:00,43.9,20.4,30.48,North,0,0.0,0.0,39,0.00,,,0.00,WUHU216HW,2013-04-21 14:20:00,
2013-04-21 10:25:00,43.9,20.4,30.49,North,0,0.0,0.0,39,0.00,,,0.00,WUHU216HW,2013-04-21 14:25:00,
2013-04-21 10:30:00,44.5,21.0,30.49,North,0,0.0,0.0,39,0.00,,,0.00,WUHU216HW,2013-04-21 14:30:00,
2013-04-21 10:35:00,45.0,21.4,30.49,North,0,0.0,0.0,39,0.00,,,0.00,WUHU216HW,2013-04-21 14:35:00,
2013-04-21 10:40:00,45.4,21.1,30.49,North,0,0.0,0.0,38,0.00,,,0.00,WUHU216HW,2013-04-21 14:40:00,
2013-04-21 10:45:00,45.7,20.8,30.49,North,0,0.0,0.0,37,0.00,,,0.00,WUHU216HW,2013-04-21 14:45:00,
2013-04-21 10:49:00,45.5,20.6,30.49,North,0,0.0,0.0,37,0.00,,,0.00,WUHU216HW,2013-04-21 14:49:00,
2013-04-21 10:54:00,45.4,21.1,30.49,North,0,0.0,0.0,38,0.00,,,0.00,WUHU216HW,2013-04-21 14:54:00,
2013-04-21 10:59:00,45.5,20.6,30.49,North,0,0.0,0.0,37,0.00,,,0.00,WUHU216HW,2013-04-21 14:59:00,
2013-04-21 11:04:00,45.2,20.3,30.49,North,0,0.0,0.0,37,0.00,,,0.00,WUHU216HW,2013-04-21 15:04:00,
2013-04-21 11:09:00,45.2,20.3,30.49,North,0,0.0,0.0,37,0.00,,,0.00,WUHU216HW,2013-04-21 15:09:00,
2013-04-21 11:14:00,45.4,20.4,30.49,North,0,0.0,0.0,37,0.00,,,0.00,WUHU216HW,2013-04-21 15:14:00,
2013-04-21 11:19:00,45.9,20.9,30.49,NW,315,3.4,3.4,37,0.00,,,0.00,WUHU216HW,2013-04-21 15:19:00,
2013-04-21 11:24:00,45.9,20.9,30.49,NW,315,3.4,3.4,37,0.00,,,0.00,WUHU216HW,2013-04-21 15:24:00,
2013-04-21 11:29:00,46.1,21.1,30.50,NW,315,9.8,9.8,37,0.00,,,0.00,WUHU216HW,2013-04-21 15:29:00,
2013-04-21 11:34:00,46.1,20.4,30.50,WSW,248,6.5,9.8,36,0.00,,,0.00,WUHU216HW,2013-04-21 15:34:00,
2013-04-21 11:39:00,46.4,20.7,30.50,West,270,4.0,9.8,36,0.00,,,0.00,WUHU216HW,2013-04-21 15:39:00,
2013-04-21 11:44:00,46.4,20.7,30.50,SSE,158,3.4,9.4,36,0.00,,,0.00,WUHU216HW,2013-04-21 15:44:00,
2013-04-21 11:49:00,46.4,20.7,30.50,West,270,7.2,13.6,36,0.00,,,0.00,WUHU216HW,2013-04-21 15:49:00,
2013-04-21 11:54:00,46.6,20.3,30.50,WNW,293,7.2,13.6,35,0.00,,,0.00,WUHU216HW,2013-04-21 15:54:00,
2013-04-21 11:59:00,46.8,20.4,30.50,NW,315,8.5,8.5,35,0.00,,,0.00,WUHU216HW,2013-04-21 15:59:00,
2013-04-21 12:04:00,46.8,20.4,30.50,North,0,0.0,8.5,35,0.00,,,0.00,WUHU216HW,2013-04-21 16:04:00,
2013-04-21 12:09:00,46.8,19.1,30.50,NW,315,4.9,8.5,33,0.00,,,0.00,WUHU216HW,2013-04-21 16:09:00,
2013-04-21 12:14:00,46.4,20.1,30.50,NW,315,5.8,7.2,35,0.00,,,0.00,WUHU216HW,2013-04-21 16:14:00,
2013-04-21 12:19:00,47.2,20.1,30.50,SE,135,4.0,10.5,34,0.00,,,0.00,WUHU216HW,2013-04-21 16:19:00,
2013-04-21 12:24:00,47.2,19.4,30.50,West,270,9.6,10.5,33,0.00,,,0.00,WUHU216HW,2013-04-21 16:24:00,
2013-04-21 12:29:00,47.2,20.1,30.50,WNW,293,0.7,9.6,34,0.00,,,0.00,WUHU216HW,2013-04-21 16:29:00,
2013-04-21 12:34:00,47.2,20.1,30.50,NW,315,10.7,10.7,34,0.00,,,0.00,WUHU216HW,2013-04-21 16:34:00,
2013-04-21 12:39:00,47.7,19.9,30.50,WSW,248,6.9,10.7,33,0.00,,,0.00,WUHU216HW,2013-04-21 16:39:00,
2013-04-21 12:44:00,48.2,20.3,30.50,West,270,12.1,12.1,33,0.00,,,0.00,WUHU216HW,2013-04-21 16:44:00,
2013-04-21 12:49:00,48.2,19.7,30.50,ENE,68,1.3,12.1,32,0.00,,,0.00,WUHU216HW,2013-04-21 16:49:00,
2013-04-21 12:54:00,48.4,20.5,30.50,WNW,293,3.1,12.1,33,0.00,,,0.00,WUHU216HW,2013-04-21 16:54:00,
2013-04-21 12:59:00,48.6,20.0,30.50,West,270,5.4,10.7,32,0.00,,,0.00,WUHU216HW,2013-04-21 16:59:00,
2013-04-21 13:04:00,48.6,20.0,30.50,NNW,338,5.6,10.7,32,0.00,,,0.00,WUHU216HW,2013-04-21 17:04:00,
2013-04-21 13:09:00,48.6,19.4,30.50,NNW,338,4.0,9.6,31,0.00,,,0.00,WUHU216HW,2013-04-21 17:09:00,
2013-04-21 13:14:00,49.1,19.7,30.50,WNW,293,9.2,9.2,31,0.00,,,0.00,WUHU216HW,2013-04-21 17:14:00,
2013-04-21 13:19:00,49.1,19.7,30.50,NW,315,7.2,9.2,31,0.00,,,0.00,WUHU216HW,2013-04-21 17:19:00,
2013-04-21 13:24:00,49.1,19.7,30.50,West,270,10.5,10.5,31,0.00,,,0.00,WUHU216HW,2013-04-21 17:24:00,
2013-04-21 13:29:00,49.3,19.9,30.49,WNW,293,12.8,12.8,31,0.00,,,0.00,WUHU216HW,2013-04-21 17:29:00,
2013-04-21 13:34:00,49.7,20.2,30.49,NW,315,6.3,12.8,31,0.00,,,0.00,WUHU216HW,2013-04-21 17:34:00,
2013-04-21 13:39:00,50.0,19.8,30.49,NNW,338,3.4,12.8,30,0.00,,,0.00,WUHU216HW,2013-04-21 17:39:00,
2013-04-21 13:44:00,50.2,20.0,30.50,NE,45,2.9,7.4,30,0.00,,,0.00,WUHU216HW,2013-04-21 17:44:00,
2013-04-21 13:49:00,50.4,20.8,30.50,NW,315,6.9,7.8,31,0.00,,,0.00,WUHU216HW,2013-04-21 17:49:00,
2013-04-21 13:54:00,50.4,20.8,30.50,NW,315,6.9,7.8,31,0.00,,,0.00,WUHU216HW,2013-04-21 17:54:00,
2013-04-21 13:59:00,50.4,20.2,30.50,NNW,338,0.7,6.9,30,0.00,,,0.00,WUHU216HW,2013-04-21 17:59:00,
2013-04-21 14:04:00,50.6,20.3,30.50,NW,315,6.9,6.9,30,0.00,,,0.00,WUHU216HW,2013-04-21 18:04:00,
2013-04-21 14:09:00,50.6,19.4,30.50,NW,315,6.9,6.9,29,0.00,,,0.00,WUHU216HW,2013-04-21 18:09:00,
2013-04-21 14:14:00,50.6,20.3,30.50,NNW,338,7.6,7.6,30,0.00,,,0.00,WUHU216HW,2013-04-21 18:14:00,
2013-04-21 14:19:00,50.9,20.6,30.50,NNW,338,6.0,8.3,30,0.00,,,0.00,WUHU216HW,2013-04-21 18:19:00,
2013-04-21 14:24:00,51.3,21.0,30.50,NNW,338,4.0,8.3,30,0.00,,,0.00,WUHU216HW,2013-04-21 18:24:00,
2013-04-21 14:29:00,51.7,22.0,30.50,West,270,6.9,6.9,31,0.00,,,0.00,WUHU216HW,2013-04-21 18:29:00,
2013-04-21 14:34:00,51.8,20.5,30.50,NW,315,9.2,9.2,29,0.00,,,0.00,WUHU216HW,2013-04-21 18:34:00,
2013-04-21 14:39:00,51.7,20.4,30.49,North,0,0.0,9.2,29,0.00,,,0.00,WUHU216HW,2013-04-21 18:39:00,
2013-04-21 14:44:00,51.8,20.5,30.49,North,0,0.0,9.2,29,0.00,,,0.00,WUHU216HW,2013-04-21 18:44:00,
2013-04-21 14:49:00,51.8,20.5,30.49,North,0,0.0,0.0,29,0.00,,,0.00,WUHU216HW,2013-04-21 18:49:00,
2013-04-21 14:54:00,52.2,20.8,30.49,North,0,0.0,0.0,29,0.00,,,0.00,WUHU216HW,2013-04-21 18:54:00,
2013-04-21 14:59:00,52.0,19.7,30.49,North,0,0.0,0.0,28,0.00,,,0.00,WUHU216HW,2013-04-21 18:59:00,
2013-04-21 15:04:00,51.8,18.6,30.49,North,0,0.0,0.0,27,0.00,,,0.00,WUHU216HW,2013-04-21 19:04:00,
2013-04-21 15:09:00,52.0,19.7,30.49,North,0,0.0,0.0,28,0.00,,,0.00,WUHU216HW,2013-04-21 19:09:00,
2013-04-21 15:14:00,52.2,19.9,30.49,North,0,0.0,0.0,28,0.00,,,0.00,WUHU216HW,2013-04-21 19:14:00,
2013-04-21 15:19:00,52.6,21.2,30.49,North,0,0.0,0.0,29,0.00,,,0.00,WUHU216HW,2013-04-21 19:19:00,
2013-04-21 15:24:00,52.9,20.5,30.49,North,0,0.0,0.0,28,0.00,,,0.00,WUHU216HW,2013-04-21 19:24:00,
2013-04-21 15:29:00,52.7,19.4,30.50,North,0,0.0,0.0,27,0.00,,,0.00,WUHU216HW,2013-04-21 19:29:00,
2013-04-21 15:34:00,52.9,19.5,30.50,North,0,0.0,0.0,27,0.00,,,0.00,WUHU216HW,2013-04-21 19:34:00,
2013-04-21 15:39:00,53.1,19.7,30.50,North,0,0.0,0.0,27,0.00,,,0.00,WUHU216HW,2013-04-21 19:39:00,
2013-04-21 15:44:00,53.3,19.9,30.49,North,0,0.0,0.0,27,0.00,,,0.00,WUHU216HW,2013-04-21 19:44:00,
2013-04-21 15:49:00,53.5,20.0,30.50,North,0,0.0,0.0,27,0.00,,,0.00,WUHU216HW,2013-04-21 19:49:00,
2013-04-21 15:54:00,53.5,20.0,30.49,North,0,0.0,0.0,27,0.00,,,0.00,WUHU216HW,2013-04-21 19:54:00,
2013-04-21 15:59:00,52.9,19.5,30.49,NNW,338,2.9,6.9,27,0.00,,,0.00,WUHU216HW,2013-04-21 19:59:00,
2013-04-21 16:04:00,52.9,20.5,30.50,North,0,4.7,6.9,28,0.00,,,0.00,WUHU216HW,2013-04-21 20:04:00,
2013-04-21 16:09:00,53.1,19.7,30.50,NNW,338,7.6,7.6,27,0.00,,,0.00,WUHU216HW,2013-04-21 20:09:00,
2013-04-21 16:14:00,52.9,20.5,30.49,WNW,293,7.4,7.6,28,0.00,,,0.00,WUHU216HW,2013-04-21 20:14:00,
2013-04-21 16:19:00,53.1,20.7,30.50,WNW,293,6.0,9.4,28,0.00,,,0.00,WUHU216HW,2013-04-21 20:19:00,
2013-04-21 16:24:00,53.3,19.9,30.50,WNW,293,4.7,9.4,27,0.00,,,0.00,WUHU216HW,2013-04-21 20:24:00,
2013-04-21 16:29:00,53.5,21.0,30.50,NNW,338,1.8,6.3,28,0.00,,,0.00,WUHU216HW,2013-04-21 20:29:00,
2013-04-21 16:34:00,53.5,20.0,30.49,SE,135,3.1,4.7,27,0.00,,,0.00,WUHU216HW,2013-04-21 20:34:00,
2013-04-21 16:39:00,53.8,21.2,30.50,SE,135,3.4,3.4,28,0.00,,,0.00,WUHU216HW,2013-04-21 20:39:00,
2013-04-21 16:44:00,54.4,21.7,30.50,NNW,338,4.5,4.5,28,0.00,,,0.00,WUHU216HW,2013-04-21 20:44:00,
2013-04-21 16:49:00,54.5,21.9,30.50,NW,315,4.9,4.9,28,0.00,,,0.00,WUHU216HW,2013-04-21 20:49:00,
2013-04-21 16:54:00,54.0,20.5,30.50,West,270,4.9,4.9,27,0.00,,,0.00,WUHU216HW,2013-04-21 20:54:00,
2013-04-21 16:59:00,54.0,20.5,30.50,NNW,338,4.0,4.9,27,0.00,,,0.00,WUHU216HW,2013-04-21 20:59:00,
2013-04-21 17:04:00,53.8,20.4,30.50,NE,45,6.3,6.3,27,0.00,,,0.00,WUHU216HW,2013-04-21 21:04:00,
2013-04-21 17:09:00,53.8,21.2,30.50,North,0,0.0,6.3,28,0.00,,,0.00,WUHU216HW,2013-04-21 21:09:00,
2013-04-21 17:14:00,54.4,20.8,30.50,North,0,0.0,6.3,27,0.00,,,0.00,WUHU216HW,2013-04-21 21:14:00,
2013-04-21 17:19:00,54.4,20.8,30.50,North,0,0.0,0.0,27,0.00,,,0.00,WUHU216HW,2013-04-21 21:19:00,
2013-04-21 17:24:00,54.0,20.5,30.50,North,0,0.0,0.0,27,0.00,,,0.00,WUHU216HW,2013-04-21 21:24:00,
2013-04-21 17:29:00,54.0,20.5,30.51,North,0,0.0,0.0,27,0.00,,,0.00,WUHU216HW,2013-04-21 21:29:00,
2013-04-21 17:34:00,54.5,24.5,30.52,North,0,0.0,0.0,31,0.00,,,0.00,WUHU216HW,2013-04-21 21:34:00,
2013-04-21 17:39:00,54.4,25.0,30.51,North,0,0.0,0.0,32,0.00,,,0.00,WUHU216HW,2013-04-21 21:39:00,
2013-04-21 17:44:00,53.8,25.2,30.52,North,0,0.0,0.0,33,0.00,,,0.00,WUHU216HW,2013-04-21 21:44:00,
2013-04-21 17:49:00,54.0,25.4,30.52,North,0,0.0,0.0,33,0.00,,,0.00,WUHU216HW,2013-04-21 21:49:00,
2013-04-21 17:54:00,54.0,25.4,30.51,North,0,0.0,0.0,33,0.00,,,0.00,WUHU216HW,2013-04-21 21:54:00,
2013-04-21 17:59:00,53.6,25.1,30.51,North,0,0.0,0.0,33,0.00,,,0.00,WUHU216HW,2013-04-21 21:59:00,
2013-04-21 18:04:00,53.6,25.1,30.52,North,0,0.0,0.0,33,0.00,,,0.00,WUHU216HW,2013-04-21 22:04:00,
2013-04-21 18:09:00,53.3,24.8,30.52,North,0,0.0,0.0,33,0.00,,,0.00,WUHU216HW,2013-04-21 22:09:00,
2013-04-21 18:14:00,52.7,24.9,30.52,North,0,0.0,0.0,34,0.00,,,0.00,WUHU216HW,2013-04-21 22:14:00,
2013-04-21 18:19:00,51.8,25.6,30.52,North,0,0.0,0.0,36,0.00,,,0.00,WUHU216HW,2013-04-21 22:19:00,
2013-04-21 18:24:00,51.1,26.3,30.53,North,0,0.0,0.0,38,0.00,,,0.00,WUHU216HW,2013-04-21 22:24:00,
2013-04-21 18:28:00,50.8,25.9,30.53,ESE,113,6.3,6.9,38,0.00,,,0.00,WUHU216HW,2013-04-21 22:28:00,
2013-04-21 18:33:00,50.4,26.3,30.53,ESE,113,4.7,6.9,39,0.00,,,0.00,WUHU216HW,2013-04-21 22:33:00,
2013-04-21 18:38:00,49.7,24.9,30.54,ESE,113,5.8,6.3,38,0.00,,,0.00,WUHU216HW,2013-04-21 22:38:00,
2013-04-21 18:43:00,49.1,25.1,30.54,North,0,0.0,5.8,39,0.00,,,0.00,WUHU216HW,2013-04-21 22:43:00,
2013-04-21 18:48:00,48.8,24.9,30.54,North,0,0.0,5.8,39,0.00,,,0.00,WUHU216HW,2013-04-21 22:48:00,
2013-04-21 18:53:00,48.2,25.0,30.54,ESE,113,4.3,5.1,40,0.00,,,0.00,WUHU216HW,2013-04-21 22:53:00,
2013-04-21 18:58:00,47.9,25.2,30.54,East,90,7.2,7.2,41,0.00,,,0.00,WUHU216HW,2013-04-21 22:58:00,
2013-04-21 19:03:00,47.5,25.5,30.54,ESE,113,5.1,7.2,42,0.00,,,0.00,WUHU216HW,2013-04-21 23:03:00,
2013-04-21 19:08:00,47.2,25.1,30.55,ESE,113,4.7,7.2,42,0.00,,,0.00,WUHU216HW,2013-04-21 23:08:00,
2013-04-21 19:13:00,46.6,25.2,30.55,North,0,0.0,5.1,43,0.00,,,0.00,WUHU216HW,2013-04-21 23:13:00,
2013-04-21 19:18:00,46.4,25.0,30.55,SE,135,6.3,6.3,43,0.00,,,0.00,WUHU216HW,2013-04-21 23:18:00,
2013-04-21 19:23:00,45.9,25.1,30.55,North,0,0.0,6.3,44,0.00,,,0.00,WUHU216HW,2013-04-21 23:23:00,
2013-04-21 19:28:00,45.7,25.5,30.56,North,0,0.0,6.3,45,0.00,,,0.00,WUHU216HW,2013-04-21 23:28:00,
2013-04-21 19:33:00,45.0,24.9,30.56,North,0,0.0,6.9,45,0.00,,,0.00,WUHU216HW,2013-04-21 23:33:00,
2013-04-21 19:38:00,44.6,24.5,30.57,North,0,0.0,6.9,45,0.00,,,0.00,WUHU216HW,2013-04-21 23:38:00,
2013-04-21 19:43:00,44.3,24.1,30.57,North,0,0.0,0.0,45,0.00,,,0.00,WUHU216HW,2013-04-21 23:43:00,
2013-04-21 19:48:00,43.7,23.7,30.57,North,0,0.0,0.0,45,0.00,,,0.00,WUHU216HW,2013-04-21 23:48:00,
2013-04-21 19:53:00,43.2,23.2,30.57,North,0,0.0,0.0,45,0.00,,,0.00,WUHU216HW,2013-04-21 23:53:00,
2013-04-21 19:58:00,42.8,22.9,30.58,North,0,0.0,0.0,45,0.00,,,0.00,WUHU216HW,2013-04-21 23:58:00,
2013-04-21 20:03:00,42.3,22.9,30.58,North,0,0.0,0.0,46,0.00,,,0.00,WUHU216HW,2013-04-22 00:03:00,
2013-04-21 20:08:00,41.9,22.5,30.58,North,0,0.0,0.0,46,0.00,,,0.00,WUHU216HW,2013-04-22 00:08:00,
2013-04-21 20:13:00,41.4,22.1,30.59,North,0,0.0,0.0,46,0.00,,,0.00,WUHU216HW,2013-04-22 00:13:00,
2013-04-21 20:18:00,40.9,21.5,30.59,North,0,0.0,0.0,46,0.00,,,0.00,WUHU216HW,2013-04-22 00:18:00,
2013-04-21 20:23:00,40.3,21.1,30.59,North,0,0.0,0.0,46,0.00,,,0.00,WUHU216HW,2013-04-22 00:23:00,
2013-04-21 20:28:00,40.0,20.7,30.59,North,0,0.0,0.0,46,0.00,,,0.00,WUHU216HW,2013-04-22 00:28:00,
2013-04-21 20:33:00,39.6,20.3,30.60,North,0,0.0,0.0,46,0.00,,,0.00,WUHU216HW,2013-04-22 00:33:00,
2013-04-21 20:38:00,39.2,19.5,30.60,North,0,0.0,0.0,45,0.00,,,0.00,WUHU216HW,2013-04-22 00:38:00,
2013-04-21 20:43:00,38.9,19.2,30.60,North,0,0.0,0.0,45,0.00,,,0.00,WUHU216HW,2013-04-22 00:43:00,
2013-04-21 20:48:00,38.3,18.7,30.60,North,0,0.0,0.0,45,0.00,,,0.00,WUHU216HW,2013-04-22 00:48:00,
2013-04-21 20:53:00,37.8,18.3,30.60,North,0,0.0,0.0,45,0.00,,,0.00,WUHU216HW,2013-04-22 00:53:00,
2013-04-21 20:58:00,37.3,17.2,30.61,North,0,0.0,0.0,44,0.00,,,0.00,WUHU216HW,2013-04-22 00:58:00,
2013-04-21 21:03:00,36.9,15.8,30.61,North,0,0.0,0.0,42,0.00,,,0.00,WUHU216HW,2013-04-22 01:03:00,
2013-04-21 21:08:00,36.5,15.0,30.62,North,0,0.0,0.0,41,0.00,,,0.00,WUHU216HW,2013-04-22 01:08:00,
2013-04-21 21:13:00,36.4,13.7,30.62,North,0,0.0,0.0,39,0.00,,,0.00,WUHU216HW,2013-04-22 01:13:00,
2013-04-21 21:18:00,36.2,14.1,30.62,North,0,0.0,0.0,40,0.00,,,0.00,WUHU216HW,2013-04-22 01:18:00,
2013-04-21 21:23:00,35.6,11.7,30.62,North,0,0.0,0.0,37,0.00,,,0.00,WUHU216HW,2013-04-22 01:23:00,
2013-04-21 21:28:00,35.6,10.4,30.63,North,0,0.0,0.0,35,0.00,,,0.00,WUHU216HW,2013-04-22 01:28:00,
2013-04-21 21:33:00,36.2,5.0,30.63,North,0,0.0,0.0,27,0.00,,,0.00,WUHU216HW,2013-04-22 01:33:00,
2013-04-21 21:38:00,35.8,7.4,30.63,North,0,0.0,0.0,30,0.00,,,0.00,WUHU216HW,2013-04-22 01:38:00,
2013-04-21 21:43:00,35.5,7.8,30.63,North,0,0.0,0.0,31,0.00,,,0.00,WUHU216HW,2013-04-22 01:43:00,
2013-04-21 21:48:00,34.9,6.7,30.63,North,0,0.0,0.0,30,0.00,,,0.00,WUHU216HW,2013-04-22 01:48:00,
2013-04-21 21:53:00,34.6,6.3,30.63,North,0,0.0,0.0,30,0.00,,,0.00,WUHU216HW,2013-04-22 01:53:00,
2013-04-21 21:58:00,34.6,3.7,30.63,North,0,0.0,0.0,27,0.00,,,0.00,WUHU216HW,2013-04-22 01:58:00,
2013-04-21 22:03:00,34.9,-4.9,30.62,North,0,0.0,0.0,18,0.00,,,0.00,WUHU216HW,2013-04-22 02:03:00,
2013-04-21 22:08:00,34.9,-6.3,30.63,North,0,0.0,0.0,17,0.00,,,0.00,WUHU216HW,2013-04-22 02:08:00,
2013-04-21 22:13:00,34.9,-4.9,30.63,WNW,293,1.1,1.1,18,0.00,,,0.00,WUHU216HW,2013-04-22 02:13:00,
2013-04-21 22:18:00,34.6,-1.5,30.63,North,0,0.0,1.1,21,0.00,,,0.00,WUHU216HW,2013-04-22 02:18:00,
2013-04-21 22:23:00,34.6,-6.7,30.63,North,0,0.0,1.1,17,0.00,,,0.00,WUHU216HW,2013-04-22 02:23:00,
2013-04-21 22:28:00,34.4,-11.1,30.63,North,0,0.0,0.0,14,0.00,,,0.00,WUHU216HW,2013-04-22 02:28:00,
2013-04-21 22:33:00,34.2,-8.4,30.64,North,0,0.0,0.0,16,0.00,,,0.00,WUHU216HW,2013-04-22 02:33:00,
2013-04-21 22:38:00,33.8,-11.5,30.63,North,0,0.0,0.0,14,0.00,,,0.00,WUHU216HW,2013-04-22 02:38:00,
2013-04-21 22:43:00,33.7,-10.3,30.64,North,0,0.0,0.0,15,0.00,,,0.00,WUHU216HW,2013-04-22 02:43:00,
2013-04-21 22:48:00,33.1,-10.6,30.63,North,0,0.0,0.0,15,0.00,,,0.00,WUHU216HW,2013-04-22 02:48:00,
2013-04-21 22:53:00,32.9,-12.1,30.64,North,0,0.0,0.0,14,0.00,,,0.00,WUHU216HW,2013-04-22 02:53:00,
2013-04-21 22:58:00,32.6,-12.4,30.64,North,0,0.0,0.0,14,0.00,,,0.00,WUHU216HW,2013-04-22 02:58:00,
2013-04-21 23:03:00,32.0,-12.8,30.64,North,0,0.0,0.0,14,0.00,,,0.00,WUHU216HW,2013-04-22 03:03:00,
2013-04-21 23:08:00,31.9,-18.5,30.64,North,0,0.0,0.0,10,0.00,,,0.00,WUHU216HW,2013-04-22 03:08:00,
2013-04-21 23:13:00,31.7,-18.6,30.64,North,0,0.0,0.0,1,0.00,,,0.00,WUHU216HW,2013-04-22 03:13:00,
2013-04-21 23:18:00,31.9,-18.5,30.64,North,0,0.0,0.0,1,0.00,,,0.00,WUHU216HW,2013-04-22 03:18:00,
2013-04-21 23:23:00,31.7,-18.6,30.64,North,0,0.0,0.0,1,0.00,,,0.00,WUHU216HW,2013-04-22 03:23:00,
2013-04-21 23:28:00,31.7,-18.6,30.64,North,0,0.0,0.0,1,0.00,,,0.00,WUHU216HW,2013-04-22 03:28:00,
2013-04-21 23:33:00,31.5,-18.8,30.64,North,0,0.0,0.0,1,0.00,,,0.00,WUHU216HW,2013-04-22 03:33:00,
2013-04-21 23:38:00,31.7,-18.6,30.65,North,0,0.0,0.0,1,0.00,,,0.00,WUHU216HW,2013-04-22 03:38:00,
2013-04-21 23:43:00,31.7,-18.6,30.65,North,0,0.0,0.0,1,0.00,,,0.00,WUHU216HW,2013-04-22 03:43:00,
2013-04-21 23:48:00,31.3,-18.9,30.65,North,0,0.0,0.0,1,0.00,,,0.00,WUHU216HW,2013-04-22 03:48:00,
2013-04-21 23:53:00,31.0,-19.3,30.65,North,0,0.0,0.0,1,0.00,,,0.00,WUHU216HW,2013-04-22 03:53:00,
2013-04-21 23:58:00,30.6,-19.5,30.65,North,0,0.0,0.0,1,0.00,,,0.00,WUHU216HW,2013-04-22 03:58:00,